Weather in Novofedorovka

Ukraine / Kherson District     46°10′25″N   32°19′11″E
temp.,
°C
wind,
m/s
gust,
m/s
humid.,
%
clouds,
%
prec.,
mm/h
press.,
hPa
HPBL,
m
27 january, wed
wed2723:00+4nne71092100 1.6 1007286
02:00+3nne81192100 4.3 1004284
05:00+3nne7994100 3.9 1003227
08:00+3nne6795100 5.1 1001157
11:00+5ne5694100 1.0 1001151
14:00+8s61295100 3.2 998326
17:00+8se5994100 2.0 996245
20:00+9e61187100 2.7 993228
28 january, thu
thu2823:00+9se81479100 0.0 993341
02:00+8s71089100 0.1 993291
05:00+5sw81095100 0.0 994424
08:00+4sw81087100 0.1 997714
11:00+2sw91180100 0.1 999970
14:00+3sw101281100 0.3 9991100
17:00+2sw101395100 0.8 1001817
20:00+1wsw121596100 1.8 1002966
29 january, fri
fri2923:00+1wsw121596100 0.9 10021001
02:00+1wsw111597100 2.3 1003910
05:00+1w91288100 0.6 1004907
08:00+2w81174100 0.6 10051033
11:00+4wsw81065100 0.0 10071063
14:00+4sw7106399 0.0 1006895
17:00+4sw7117098 0.0 1005620
20:00+4sw8128199 0.0 1004677
30 january, sat
sat3023:00+5wsw6117998 0.3 1004744
02:00+4sw478781 0.3 1003248
05:00+5ssw488992 0.0 1001232
08:00+7s7138696 0.0 1000533
11:00+8s101586100 0.1 999762
14:00+7ssw121789100 2.2 997914
17:00+7ssw121885100 1.2 996707
20:00+6w5990100 2.6 997352
31 january, sun
sun3123:00+4wnw6790100 0.0 999411
02:00+2nw6108893 0.0 1001419
05:000nnw477399 0.0 1004386
08:000nnw247483 0.0 1007324
11:00+1nne126599 0.0 1009347
14:00+2ne226599 0.0 1010421
17:00+3e4665100 0.0 1009360
20:00+4ese6970100 0.0 1009331